Year,Month,Day,Hour,Minute,Value (Times are PST for temperature in C)
2006,06,24,00,00,10.20
2006,06,24,00,01,10.20
2006,06,24,00,02,10.10
2006,06,24,00,03,10.10
2006,06,24,00,04,10.10
2006,06,24,00,05,10.10
2006,06,24,00,06,10.10
2006,06,24,00,07,10.10
2006,06,24,00,08,10.10
2006,06,24,00,09,10.10
2006,06,24,00,10,10.10
2006,06,24,00,11,10.10
2006,06,24,00,12,10.10
2006,06,24,00,13,10.10
2006,06,24,00,14,10.10
2006,06,24,00,15,10.10
2006,06,24,00,16,10.00
2006,06,24,00,17,9.90
2006,06,24,00,18,9.90
2006,06,24,00,19,9.90
2006,06,24,00,20,9.90
2006,06,24,00,21,9.90
2006,06,24,00,22,9.80
2006,06,24,00,23,9.80
2006,06,24,00,24,9.80
2006,06,24,00,25,9.80
2006,06,24,00,26,9.80
2006,06,24,00,27,9.80
2006,06,24,00,28,9.80
2006,06,24,00,29,9.80
2006,06,24,00,30,9.80
2006,06,24,00,31,9.80
2006,06,24,00,32,9.80
2006,06,24,00,33,9.80
2006,06,24,00,34,9.80
2006,06,24,00,35,9.80
2006,06,24,00,36,9.80
2006,06,24,00,37,9.80
2006,06,24,00,38,9.80
2006,06,24,00,39,9.80
2006,06,24,00,40,9.80
2006,06,24,00,41,9.80
2006,06,24,00,42,9.80
2006,06,24,00,43,9.70
2006,06,24,00,44,9.70
2006,06,24,00,45,9.70
2006,06,24,00,46,9.70
2006,06,24,00,47,9.70
2006,06,24,00,48,9.70
2006,06,24,00,49,9.70
2006,06,24,00,50,9.70
2006,06,24,00,51,9.70
2006,06,24,00,52,9.60
2006,06,24,00,53,9.60
2006,06,24,00,54,9.60
2006,06,24,00,55,9.60
2006,06,24,00,56,9.60
2006,06,24,00,57,9.60
2006,06,24,00,58,9.60
2006,06,24,00,59,9.60
2006,06,24,01,00,9.50
2006,06,24,01,01,9.50
2006,06,24,01,02,9.50
2006,06,24,01,03,9.50
2006,06,24,01,04,9.50
2006,06,24,01,05,9.50
2006,06,24,01,06,9.50
2006,06,24,01,07,9.50
2006,06,24,01,08,9.50
2006,06,24,01,09,9.50
2006,06,24,01,10,9.50
2006,06,24,01,11,9.50
2006,06,24,01,12,9.50
2006,06,24,01,13,9.40
2006,06,24,01,14,9.40
2006,06,24,01,15,9.40
2006,06,24,01,16,9.40
2006,06,24,01,17,9.40
2006,06,24,01,18,9.40
2006,06,24,01,19,9.40
2006,06,24,01,20,9.40
2006,06,24,01,21,9.40
2006,06,24,01,22,9.40
2006,06,24,01,23,9.40
2006,06,24,01,24,9.30
2006,06,24,01,25,9.30
2006,06,24,01,26,9.30
2006,06,24,01,27,9.30
2006,06,24,01,28,9.30
2006,06,24,01,29,9.30
2006,06,24,01,30,9.30
2006,06,24,01,31,9.30
2006,06,24,01,32,9.30
2006,06,24,01,33,9.30
2006,06,24,01,34,9.20
2006,06,24,01,35,9.20
2006,06,24,01,36,9.20
2006,06,24,01,37,9.20
2006,06,24,01,38,9.20
2006,06,24,01,39,9.20
2006,06,24,01,40,9.20
2006,06,24,01,41,9.20
2006,06,24,01,42,9.20
2006,06,24,01,43,9.20
2006,06,24,01,44,9.20
2006,06,24,01,45,9.20
2006,06,24,01,46,9.20
2006,06,24,01,47,9.20
2006,06,24,01,48,9.20
2006,06,24,01,49,9.20
2006,06,24,01,50,9.20
2006,06,24,01,51,9.20
2006,06,24,01,52,9.20
2006,06,24,01,53,9.20
2006,06,24,01,54,9.20
2006,06,24,01,55,9.20
2006,06,24,01,56,9.20
2006,06,24,01,57,9.30
2006,06,24,01,58,9.30
2006,06,24,01,59,9.30
2006,06,24,02,00,9.30
2006,06,24,02,01,9.30
2006,06,24,02,02,9.30
2006,06,24,02,03,9.30
2006,06,24,02,04,9.30
2006,06,24,02,05,9.30
2006,06,24,02,06,9.30
2006,06,24,02,07,9.30
2006,06,24,02,08,9.30
2006,06,24,02,09,9.20
2006,06,24,02,10,9.20
2006,06,24,02,11,9.20
2006,06,24,02,12,9.20
2006,06,24,02,13,9.20
2006,06,24,02,14,9.10
2006,06,24,02,15,9.10
2006,06,24,02,16,9.10
2006,06,24,02,17,9.10
2006,06,24,02,18,9.00
2006,06,24,02,19,9.00
2006,06,24,02,20,9.00
2006,06,24,02,21,9.00
2006,06,24,02,22,8.90
2006,06,24,02,23,8.90
2006,06,24,02,24,8.90
2006,06,24,02,25,8.90
2006,06,24,02,26,8.90
2006,06,24,02,27,8.80
2006,06,24,02,28,8.80
2006,06,24,02,29,8.80
2006,06,24,02,30,8.80
2006,06,24,02,31,8.80
2006,06,24,02,32,8.70
2006,06,24,02,33,8.70
2006,06,24,02,34,8.70
2006,06,24,02,35,8.70
2006,06,24,02,36,8.70
2006,06,24,02,37,8.70
2006,06,24,02,38,8.70
2006,06,24,02,39,8.70
2006,06,24,02,40,8.70
2006,06,24,02,41,8.70
2006,06,24,02,42,8.70
2006,06,24,02,43,8.70
2006,06,24,02,44,8.70
2006,06,24,02,45,8.70
2006,06,24,02,46,8.70
2006,06,24,02,47,8.70
2006,06,24,02,48,8.70
2006,06,24,02,49,8.70
2006,06,24,02,50,8.70
2006,06,24,02,51,8.70
2006,06,24,02,52,8.70
2006,06,24,02,53,8.70
2006,06,24,02,54,8.70
2006,06,24,02,55,8.70
2006,06,24,02,56,8.70
2006,06,24,02,57,8.70
2006,06,24,02,58,8.80
2006,06,24,02,59,8.80
2006,06,24,03,00,8.80
2006,06,24,03,01,8.80
2006,06,24,03,02,8.80
2006,06,24,03,03,8.80
2006,06,24,03,04,8.80
2006,06,24,03,05,8.70
2006,06,24,03,06,8.70
2006,06,24,03,07,8.70
2006,06,24,03,08,8.70
2006,06,24,03,09,8.70
2006,06,24,03,10,8.70
2006,06,24,03,11,8.70
2006,06,24,03,12,8.70
2006,06,24,03,13,8.70
2006,06,24,03,14,8.70
2006,06,24,03,15,8.70
2006,06,24,03,16,8.70
2006,06,24,03,17,8.70
2006,06,24,03,18,8.70
2006,06,24,03,19,8.70
2006,06,24,03,20,8.70
2006,06,24,03,21,8.70
2006,06,24,03,22,8.70
2006,06,24,03,23,8.70
2006,06,24,03,24,8.70
2006,06,24,03,25,8.70
2006,06,24,03,26,8.70
2006,06,24,03,27,8.70
2006,06,24,03,28,8.70
2006,06,24,03,29,8.60
2006,06,24,03,30,8.60
2006,06,24,03,31,8.60
2006,06,24,03,32,8.60
2006,06,24,03,33,8.60
2006,06,24,03,34,8.60
2006,06,24,03,35,8.60
2006,06,24,03,36,8.60
2006,06,24,03,37,8.60
2006,06,24,03,38,8.60
2006,06,24,03,39,8.60
2006,06,24,03,40,8.60
2006,06,24,03,41,8.60
2006,06,24,03,42,8.60
2006,06,24,03,43,8.70
2006,06,24,03,44,8.70
2006,06,24,03,45,8.70
2006,06,24,03,46,8.70
2006,06,24,03,47,8.70
2006,06,24,03,48,8.70
2006,06,24,03,49,8.80
2006,06,24,03,50,8.90
2006,06,24,03,51,8.90
2006,06,24,03,52,9.00
2006,06,24,03,53,9.00
2006,06,24,03,54,9.00
2006,06,24,03,55,9.00
2006,06,24,03,56,9.00
2006,06,24,03,57,9.00
2006,06,24,03,58,9.00
2006,06,24,03,59,9.00
2006,06,24,04,00,9.00
2006,06,24,04,01,9.00
2006,06,24,04,02,9.00
2006,06,24,04,03,9.00
2006,06,24,04,04,9.00
2006,06,24,04,05,9.00
2006,06,24,04,06,9.00
2006,06,24,04,07,9.00
2006,06,24,04,08,8.90
2006,06,24,04,09,8.90
2006,06,24,04,10,8.90
2006,06,24,04,11,9.00
2006,06,24,04,12,9.00
2006,06,24,04,13,9.20
2006,06,24,04,14,9.30
2006,06,24,04,15,9.40
2006,06,24,04,16,9.50
2006,06,24,04,17,9.60
2006,06,24,04,18,9.70
2006,06,24,04,19,9.70
2006,06,24,04,20,9.80
2006,06,24,04,21,9.80
2006,06,24,04,22,9.80
2006,06,24,04,23,9.80
2006,06,24,04,24,9.80
2006,06,24,04,25,9.70
2006,06,24,04,26,9.70
2006,06,24,04,27,9.70
2006,06,24,04,28,9.70
2006,06,24,04,29,9.60
2006,06,24,04,30,9.50
2006,06,24,04,31,9.50
2006,06,24,04,32,9.50
2006,06,24,04,33,9.40
2006,06,24,04,34,9.40
2006,06,24,04,35,9.40
2006,06,24,04,36,9.40
2006,06,24,04,37,9.40
2006,06,24,04,38,9.30
2006,06,24,04,39,9.30
2006,06,24,04,40,9.30
2006,06,24,04,41,9.20
2006,06,24,04,42,9.20
2006,06,24,04,43,9.20
2006,06,24,04,44,9.10
2006,06,24,04,45,9.00
2006,06,24,04,46,9.00
2006,06,24,04,47,8.90
2006,06,24,04,48,8.90
2006,06,24,04,49,8.80
2006,06,24,04,50,8.80
2006,06,24,04,51,8.70
2006,06,24,04,52,8.70
2006,06,24,04,53,8.70
2006,06,24,04,54,8.70
2006,06,24,04,55,8.70
2006,06,24,04,56,8.70
2006,06,24,04,57,8.70
2006,06,24,04,58,8.70
2006,06,24,04,59,8.80
2006,06,24,05,00,8.80
2006,06,24,05,01,8.80
2006,06,24,05,02,8.80
2006,06,24,05,03,8.80
2006,06,24,05,04,8.80
2006,06,24,05,05,8.70
2006,06,24,05,06,8.70
2006,06,24,05,07,8.70
2006,06,24,05,08,8.70
2006,06,24,05,09,8.70
2006,06,24,05,10,8.70
2006,06,24,05,11,8.70
2006,06,24,05,12,8.70
2006,06,24,05,13,8.70
2006,06,24,05,14,8.70
2006,06,24,05,15,8.70
2006,06,24,05,16,8.70
2006,06,24,05,17,8.70
2006,06,24,05,18,8.70
2006,06,24,05,19,8.70
2006,06,24,05,20,8.70
2006,06,24,05,21,8.70
2006,06,24,05,22,8.70
2006,06,24,05,23,8.70
2006,06,24,05,24,8.70
2006,06,24,05,25,8.70
2006,06,24,05,26,8.70
2006,06,24,05,27,8.80
2006,06,24,05,28,8.90
2006,06,24,05,29,8.90
2006,06,24,05,30,8.90
2006,06,24,05,31,9.00
2006,06,24,05,32,9.00
2006,06,24,05,33,9.10
2006,06,24,05,34,9.20
2006,06,24,05,35,9.20
2006,06,24,05,36,9.20
2006,06,24,05,37,9.20
2006,06,24,05,38,9.30
2006,06,24,05,39,9.30
2006,06,24,05,40,9.40
2006,06,24,05,41,9.40
2006,06,24,05,42,9.40
2006,06,24,05,43,9.50
2006,06,24,05,44,9.50
2006,06,24,05,45,9.50
2006,06,24,05,46,9.50
2006,06,24,05,47,9.60
2006,06,24,05,48,9.60
2006,06,24,05,49,9.70
2006,06,24,05,50,9.70
2006,06,24,05,51,9.70
2006,06,24,05,52,9.80
2006,06,24,05,53,9.80
2006,06,24,05,54,9.90
2006,06,24,05,55,9.90
2006,06,24,05,56,9.90
2006,06,24,05,57,10.00
2006,06,24,05,58,10.10
2006,06,24,05,59,10.10
2006,06,24,06,00,10.10
2006,06,24,06,01,10.10
2006,06,24,06,02,10.20
2006,06,24,06,03,10.20
2006,06,24,06,04,10.30
2006,06,24,06,05,10.30
2006,06,24,06,06,10.40
2006,06,24,06,07,10.40
2006,06,24,06,08,10.50
2006,06,24,06,09,10.60
2006,06,24,06,10,10.60
2006,06,24,06,11,10.60
2006,06,24,06,12,10.60
2006,06,24,06,13,10.70
2006,06,24,06,14,10.70
2006,06,24,06,15,10.70
2006,06,24,06,16,10.70
2006,06,24,06,17,10.80
2006,06,24,06,18,10.80
2006,06,24,06,19,10.80
2006,06,24,06,20,10.90
2006,06,24,06,21,10.90
2006,06,24,06,22,10.90
2006,06,24,06,23,10.90
2006,06,24,06,24,11.00
2006,06,24,06,25,11.10
2006,06,24,06,26,11.20
2006,06,24,06,27,11.30
2006,06,24,06,28,11.30
2006,06,24,06,29,11.40
2006,06,24,06,30,11.50
2006,06,24,06,31,11.60
2006,06,24,06,32,11.70
2006,06,24,06,33,11.70
2006,06,24,06,34,11.80
2006,06,24,06,35,11.80
2006,06,24,06,36,11.80
2006,06,24,06,37,11.80
2006,06,24,06,38,11.80
2006,06,24,06,39,11.80
2006,06,24,06,40,11.80
2006,06,24,06,41,11.80
2006,06,24,06,42,11.80
2006,06,24,06,43,11.80
2006,06,24,06,44,11.80
2006,06,24,06,45,11.80
2006,06,24,06,46,11.80
2006,06,24,06,47,11.80
2006,06,24,06,48,11.80
2006,06,24,06,49,11.80
2006,06,24,06,50,11.90
2006,06,24,06,51,11.90
2006,06,24,06,52,12.00
2006,06,24,06,53,12.10
2006,06,24,06,54,12.20
2006,06,24,06,55,12.30
2006,06,24,06,56,12.40
2006,06,24,06,57,12.50
2006,06,24,06,58,12.60
2006,06,24,06,59,12.80
2006,06,24,07,00,12.90
2006,06,24,07,01,13.00
2006,06,24,07,02,13.10
2006,06,24,07,03,13.10
2006,06,24,07,04,13.10
2006,06,24,07,05,13.20
2006,06,24,07,06,13.20
2006,06,24,07,07,13.30
2006,06,24,07,08,13.30
2006,06,24,07,09,13.30
2006,06,24,07,10,13.40
2006,06,24,07,11,13.50
2006,06,24,07,12,13.60
2006,06,24,07,13,13.60
2006,06,24,07,14,13.70
2006,06,24,07,15,13.70
2006,06,24,07,16,13.70
2006,06,24,07,17,13.80
2006,06,24,07,18,13.90
2006,06,24,07,19,13.90
2006,06,24,07,20,14.00
2006,06,24,07,21,14.00
2006,06,24,07,22,14.10
2006,06,24,07,23,14.10
2006,06,24,07,24,14.10
2006,06,24,07,25,14.20
2006,06,24,07,26,14.20
2006,06,24,07,27,14.20
2006,06,24,07,28,14.20
2006,06,24,07,29,14.20
2006,06,24,07,30,14.30
2006,06,24,07,31,14.30
2006,06,24,07,32,14.40
2006,06,24,07,33,14.40
2006,06,24,07,34,14.50
2006,06,24,07,35,14.50
2006,06,24,07,36,14.60
2006,06,24,07,37,14.60
2006,06,24,07,38,14.70
2006,06,24,07,39,14.80
2006,06,24,07,40,14.80
2006,06,24,07,41,14.90
2006,06,24,07,42,15.00
2006,06,24,07,43,15.00
2006,06,24,07,44,15.10
2006,06,24,07,45,15.20
2006,06,24,07,46,15.30
2006,06,24,07,47,15.50
2006,06,24,07,48,15.60
2006,06,24,07,49,15.70
2006,06,24,07,50,15.80
2006,06,24,07,51,15.90
2006,06,24,07,52,15.90
2006,06,24,07,53,15.90
2006,06,24,07,54,16.00
2006,06,24,07,55,16.10
2006,06,24,07,56,16.20
2006,06,24,07,57,16.20
2006,06,24,07,58,16.30
2006,06,24,07,59,16.40
2006,06,24,08,00,16.40
2006,06,24,08,01,16.50
2006,06,24,08,02,16.70
2006,06,24,08,03,16.70
2006,06,24,08,04,16.80
2006,06,24,08,05,16.90
2006,06,24,08,06,17.00
2006,06,24,08,07,17.10
2006,06,24,08,08,17.20
2006,06,24,08,09,17.20
2006,06,24,08,10,17.30
2006,06,24,08,11,17.30
2006,06,24,08,12,17.40
2006,06,24,08,13,17.50
2006,06,24,08,14,17.50
2006,06,24,08,15,17.60
2006,06,24,08,16,17.70
2006,06,24,08,17,17.70
2006,06,24,08,18,17.80
2006,06,24,08,19,17.80
2006,06,24,08,20,17.80
2006,06,24,08,21,17.80
2006,06,24,08,22,17.70
2006,06,24,08,23,17.60
2006,06,24,08,24,17.60
2006,06,24,08,25,17.60
2006,06,24,08,26,17.60
2006,06,24,08,27,17.70
2006,06,24,08,28,17.80
2006,06,24,08,29,17.80
2006,06,24,08,30,17.90
2006,06,24,08,31,18.10
2006,06,24,08,32,18.10
2006,06,24,08,33,18.10
2006,06,24,08,34,18.10
2006,06,24,08,35,18.10
2006,06,24,08,36,18.10
2006,06,24,08,37,18.20
2006,06,24,08,38,18.20
2006,06,24,08,39,18.10
2006,06,24,08,40,18.10
2006,06,24,08,41,18.20
2006,06,24,08,42,18.20
2006,06,24,08,43,18.20
2006,06,24,08,44,18.10
2006,06,24,08,45,18.00
2006,06,24,08,46,17.80
2006,06,24,08,47,17.70
2006,06,24,08,48,17.70
2006,06,24,08,49,17.70
2006,06,24,08,50,17.60
2006,06,24,08,51,17.60
2006,06,24,08,52,17.60
2006,06,24,08,53,17.60
2006,06,24,08,54,17.50
2006,06,24,08,55,17.50
2006,06,24,08,56,17.40
2006,06,24,08,57,17.30
2006,06,24,08,58,17.30
2006,06,24,08,59,17.30
2006,06,24,09,00,17.30
2006,06,24,09,01,17.30
2006,06,24,09,02,17.30
2006,06,24,09,03,17.20
2006,06,24,09,04,17.20
2006,06,24,09,05,17.30
2006,06,24,09,06,17.30
2006,06,24,09,07,17.30
2006,06,24,09,08,17.30
2006,06,24,09,09,17.30
2006,06,24,09,10,17.30
2006,06,24,09,11,17.40
2006,06,24,09,12,17.50
2006,06,24,09,13,17.60
2006,06,24,09,14,17.70
2006,06,24,09,15,17.80
2006,06,24,09,16,17.70
2006,06,24,09,17,17.70
2006,06,24,09,18,17.70
2006,06,24,09,19,17.70
2006,06,24,09,20,17.60
2006,06,24,09,21,17.60
2006,06,24,09,22,17.70
2006,06,24,09,23,17.70
2006,06,24,09,24,17.70
2006,06,24,09,25,17.70
2006,06,24,09,26,17.60
2006,06,24,09,27,17.60
2006,06,24,09,28,17.60
2006,06,24,09,29,17.70
2006,06,24,09,30,17.90
2006,06,24,09,31,17.90
2006,06,24,09,32,17.90
2006,06,24,09,33,17.90
2006,06,24,09,34,17.90
2006,06,24,09,35,17.80
2006,06,24,09,36,17.70
2006,06,24,09,37,17.60
2006,06,24,09,38,17.70
2006,06,24,09,39,17.70
2006,06,24,09,40,17.80
2006,06,24,09,41,17.90
2006,06,24,09,42,17.90
2006,06,24,09,43,18.10
2006,06,24,09,44,18.10
2006,06,24,09,45,18.10
2006,06,24,09,46,18.10
2006,06,24,09,47,18.10
2006,06,24,09,48,18.00
2006,06,24,09,49,17.90
2006,06,24,09,50,17.80
2006,06,24,09,51,17.80
2006,06,24,09,52,17.80
2006,06,24,09,53,17.80
2006,06,24,09,54,17.90
2006,06,24,09,55,17.90
2006,06,24,09,56,17.90
2006,06,24,09,57,17.80
2006,06,24,09,58,17.80
2006,06,24,09,59,17.80
2006,06,24,10,00,17.70
2006,06,24,10,01,17.70
2006,06,24,10,02,17.70
2006,06,24,10,03,17.70
2006,06,24,10,04,17.70
2006,06,24,10,05,17.80
2006,06,24,10,06,17.80
2006,06,24,10,07,17.90
2006,06,24,10,08,17.90
2006,06,24,10,09,17.90
2006,06,24,10,10,17.90
2006,06,24,10,11,17.80
2006,06,24,10,12,17.80
2006,06,24,10,13,18.00
2006,06,24,10,14,18.10
2006,06,24,10,15,18.20
2006,06,24,10,16,18.20
2006,06,24,10,17,18.20
2006,06,24,10,18,18.30
2006,06,24,10,19,18.30
2006,06,24,10,20,18.20
2006,06,24,10,21,18.20
2006,06,24,10,22,18.20
2006,06,24,10,23,18.10
2006,06,24,10,24,18.00
2006,06,24,10,25,18.00
2006,06,24,10,26,18.20
2006,06,24,10,27,18.40
2006,06,24,10,28,18.50
2006,06,24,10,29,18.70
2006,06,24,10,30,18.70
2006,06,24,10,31,18.90
2006,06,24,10,32,18.90
2006,06,24,10,33,19.00
2006,06,24,10,34,19.10
2006,06,24,10,35,19.10
2006,06,24,10,36,19.10
2006,06,24,10,37,19.10
2006,06,24,10,38,19.20
2006,06,24,10,39,19.20
2006,06,24,10,40,19.10
2006,06,24,10,41,19.20
2006,06,24,10,42,19.10
2006,06,24,10,43,19.10
2006,06,24,10,44,19.10
2006,06,24,10,45,19.10
2006,06,24,10,46,19.10
2006,06,24,10,47,19.00
2006,06,24,10,48,19.00
2006,06,24,10,49,19.10
2006,06,24,10,50,19.20
2006,06,24,10,51,19.30
2006,06,24,10,52,19.30
2006,06,24,10,53,19.30
2006,06,24,10,54,19.30
2006,06,24,10,55,19.40
2006,06,24,10,56,19.50
2006,06,24,10,57,19.70
2006,06,24,10,58,19.70
2006,06,24,10,59,19.80
2006,06,24,11,00,19.90
2006,06,24,11,01,20.00
2006,06,24,11,02,20.10
2006,06,24,11,03,20.00
2006,06,24,11,04,19.90
2006,06,24,11,05,19.90
2006,06,24,11,06,19.90
2006,06,24,11,07,19.90
2006,06,24,11,08,19.90
2006,06,24,11,09,20.00
2006,06,24,11,10,20.00
2006,06,24,11,11,20.00
2006,06,24,11,12,20.10
2006,06,24,11,13,20.20
2006,06,24,11,14,20.20
2006,06,24,11,15,20.30
2006,06,24,11,16,20.30
2006,06,24,11,17,20.40
2006,06,24,11,18,20.40
2006,06,24,11,19,20.40
2006,06,24,11,20,20.40
2006,06,24,11,21,20.40
2006,06,24,11,22,20.50
2006,06,24,11,23,20.70
2006,06,24,11,24,20.80
2006,06,24,11,25,20.80
2006,06,24,11,26,20.90
2006,06,24,11,27,20.80
2006,06,24,11,28,20.80
2006,06,24,11,29,20.90
2006,06,24,11,30,21.00
2006,06,24,11,31,21.10
2006,06,24,11,32,21.10
2006,06,24,11,33,21.10
2006,06,24,11,34,21.10
2006,06,24,11,35,21.00
2006,06,24,11,36,21.00
2006,06,24,11,37,20.90
2006,06,24,11,38,20.90
2006,06,24,11,39,20.80
2006,06,24,11,40,20.80
2006,06,24,11,41,20.80
2006,06,24,11,42,20.90
2006,06,24,11,43,21.00
2006,06,24,11,44,21.00
2006,06,24,11,45,21.20
2006,06,24,11,46,21.30
2006,06,24,11,47,21.40
2006,06,24,11,48,21.60
2006,06,24,11,49,21.60
2006,06,24,11,50,21.60
2006,06,24,11,51,21.50
2006,06,24,11,52,21.40
2006,06,24,11,53,21.30
2006,06,24,11,54,21.10
2006,06,24,11,55,21.00
2006,06,24,11,56,21.00
2006,06,24,11,57,21.20
2006,06,24,11,58,21.20
2006,06,24,11,59,21.10
2006,06,24,12,00,21.00
2006,06,24,12,01,21.00
2006,06,24,12,02,20.90
2006,06,24,12,03,20.80
2006,06,24,12,04,20.70
2006,06,24,12,05,20.70
2006,06,24,12,06,20.80
2006,06,24,12,07,21.00
2006,06,24,12,08,21.10
2006,06,24,12,09,21.10
2006,06,24,12,10,21.10
2006,06,24,12,11,21.10
2006,06,24,12,12,21.00
2006,06,24,12,13,21.00
2006,06,24,12,14,21.10
2006,06,24,12,15,21.10
2006,06,24,12,16,21.30
2006,06,24,12,17,21.40
2006,06,24,12,18,21.40
2006,06,24,12,19,21.30
2006,06,24,12,20,21.30
2006,06,24,12,21,21.30
2006,06,24,12,22,21.30
2006,06,24,12,23,21.30
2006,06,24,12,24,21.40
2006,06,24,12,25,21.60
2006,06,24,12,26,21.50
2006,06,24,12,27,21.60
2006,06,24,12,28,21.60
2006,06,24,12,29,21.40
2006,06,24,12,30,21.50
2006,06,24,12,31,21.60
2006,06,24,12,32,21.60
2006,06,24,12,33,21.60
2006,06,24,12,34,21.60
2006,06,24,12,35,21.60
2006,06,24,12,36,21.40
2006,06,24,12,37,21.30
2006,06,24,12,38,21.10
2006,06,24,12,39,21.10
2006,06,24,12,40,21.20
2006,06,24,12,41,21.20
2006,06,24,12,42,21.10
2006,06,24,12,43,20.90
2006,06,24,12,44,20.60
2006,06,24,12,45,20.50
2006,06,24,12,46,20.50
2006,06,24,12,47,20.60
2006,06,24,12,48,20.80
2006,06,24,12,49,20.90
2006,06,24,12,50,20.80
2006,06,24,12,51,20.80
2006,06,24,12,52,21.00
2006,06,24,12,53,21.10
2006,06,24,12,54,21.10
2006,06,24,12,55,21.10
2006,06,24,12,56,21.10
2006,06,24,12,57,21.00
2006,06,24,12,58,21.00
2006,06,24,12,59,21.10
2006,06,24,13,00,21.30
2006,06,24,13,01,21.20
2006,06,24,13,02,21.10
2006,06,24,13,03,21.10
2006,06,24,13,04,21.20
2006,06,24,13,05,21.10
2006,06,24,13,06,21.00
2006,06,24,13,07,21.10
2006,06,24,13,08,21.10
2006,06,24,13,09,21.20
2006,06,24,13,10,21.30
2006,06,24,13,11,21.30
2006,06,24,13,12,21.50
2006,06,24,13,13,21.60
2006,06,24,13,14,21.70
2006,06,24,13,15,21.70
2006,06,24,13,16,21.70
2006,06,24,13,17,21.80
2006,06,24,13,18,21.80
2006,06,24,13,19,21.70
2006,06,24,13,20,21.70
2006,06,24,13,21,21.80
2006,06,24,13,22,22.00
2006,06,24,13,23,21.90
2006,06,24,13,24,21.90
2006,06,24,13,25,21.70
2006,06,24,13,26,21.70
2006,06,24,13,27,21.90
2006,06,24,13,28,21.80
2006,06,24,13,29,21.70
2006,06,24,13,30,21.70
2006,06,24,13,31,21.60
2006,06,24,13,32,21.60
2006,06,24,13,33,21.60
2006,06,24,13,34,21.70
2006,06,24,13,35,21.80
2006,06,24,13,36,21.70
2006,06,24,13,37,21.80
2006,06,24,13,38,21.70
2006,06,24,13,39,21.80
2006,06,24,13,40,21.80
2006,06,24,13,41,21.80
2006,06,24,13,42,21.80
2006,06,24,13,43,21.90
2006,06,24,13,44,21.90
2006,06,24,13,45,21.90
2006,06,24,13,46,21.90
2006,06,24,13,47,22.00
2006,06,24,13,48,22.00
2006,06,24,13,49,22.00
2006,06,24,13,50,22.00
2006,06,24,13,51,22.00
2006,06,24,13,52,22.00
2006,06,24,13,53,22.10
2006,06,24,13,54,22.10
2006,06,24,13,55,22.10
2006,06,24,13,56,22.10
2006,06,24,13,57,22.30
2006,06,24,13,58,22.30
2006,06,24,13,59,22.20
2006,06,24,14,00,22.00
2006,06,24,14,01,21.90
2006,06,24,14,02,21.90
2006,06,24,14,03,22.00
2006,06,24,14,04,22.10
2006,06,24,14,05,22.00
2006,06,24,14,06,22.00
2006,06,24,14,07,22.00
2006,06,24,14,08,22.10
2006,06,24,14,09,22.20
2006,06,24,14,10,22.30
2006,06,24,14,11,22.40
2006,06,24,14,12,22.40
2006,06,24,14,13,22.40
2006,06,24,14,14,22.30
2006,06,24,14,15,22.30
2006,06,24,14,16,22.30
2006,06,24,14,17,22.30
2006,06,24,14,18,22.20
2006,06,24,14,19,22.30
2006,06,24,14,20,22.40
2006,06,24,14,21,22.50
2006,06,24,14,22,22.60
2006,06,24,14,23,22.60
2006,06,24,14,24,22.60
2006,06,24,14,25,22.50
2006,06,24,14,26,22.50
2006,06,24,14,27,22.40
2006,06,24,14,28,22.50
2006,06,24,14,29,22.50
2006,06,24,14,30,22.50
2006,06,24,14,31,22.50
2006,06,24,14,32,22.50
2006,06,24,14,33,22.50
2006,06,24,14,34,22.30
2006,06,24,14,35,22.30
2006,06,24,14,36,22.40
2006,06,24,14,37,22.40
2006,06,24,14,38,22.40
2006,06,24,14,39,22.50
2006,06,24,14,40,22.70
2006,06,24,14,41,22.80
2006,06,24,14,42,22.80
2006,06,24,14,43,22.90
2006,06,24,14,44,22.80
2006,06,24,14,45,22.70
2006,06,24,14,46,22.70
2006,06,24,14,47,22.60
2006,06,24,14,48,22.60
2006,06,24,14,49,22.70
2006,06,24,14,50,22.90
2006,06,24,14,51,22.90
2006,06,24,14,52,22.90
2006,06,24,14,53,22.90
2006,06,24,14,54,22.90
2006,06,24,14,55,22.90
2006,06,24,14,56,22.90
2006,06,24,14,57,22.90
2006,06,24,14,58,22.90
2006,06,24,14,59,22.90
2006,06,24,15,00,23.00
2006,06,24,15,01,23.20
2006,06,24,15,02,23.30
2006,06,24,15,03,23.20
2006,06,24,15,04,23.20
2006,06,24,15,05,23.30
2006,06,24,15,06,23.30
2006,06,24,15,07,23.20
2006,06,24,15,08,23.20
2006,06,24,15,09,23.30
2006,06,24,15,10,23.40
2006,06,24,15,11,23.60
2006,06,24,15,12,23.60
2006,06,24,15,13,23.50
2006,06,24,15,14,23.40
2006,06,24,15,15,23.40
2006,06,24,15,16,23.50
2006,06,24,15,17,23.60
2006,06,24,15,18,23.60
2006,06,24,15,19,23.60
2006,06,24,15,20,23.60
2006,06,24,15,21,23.60
2006,06,24,15,22,23.70
2006,06,24,15,23,23.70
2006,06,24,15,24,23.70
2006,06,24,15,25,23.70
2006,06,24,15,26,23.70
2006,06,24,15,27,23.80
2006,06,24,15,28,24.00
2006,06,24,15,29,24.10
2006,06,24,15,30,24.30
2006,06,24,15,31,24.30
2006,06,24,15,32,24.30
2006,06,24,15,33,24.10
2006,06,24,15,34,24.10
2006,06,24,15,35,24.10
2006,06,24,15,36,23.90
2006,06,24,15,37,23.90
2006,06,24,15,38,23.90
2006,06,24,15,39,23.90
2006,06,24,15,40,23.90
2006,06,24,15,41,23.90
2006,06,24,15,42,23.80
2006,06,24,15,43,23.80
2006,06,24,15,44,23.80
2006,06,24,15,45,23.80
2006,06,24,15,46,23.80
2006,06,24,15,47,23.90
2006,06,24,15,48,23.90
2006,06,24,15,49,23.90
2006,06,24,15,50,23.90
2006,06,24,15,51,23.90
2006,06,24,15,52,23.90
2006,06,24,15,53,23.90
2006,06,24,15,54,23.90
2006,06,24,15,55,23.90
2006,06,24,15,56,23.80
2006,06,24,15,57,23.70
2006,06,24,15,58,23.80
2006,06,24,15,59,23.80
2006,06,24,16,00,23.80
2006,06,24,16,01,23.90
2006,06,24,16,02,24.10
2006,06,24,16,03,24.20
2006,06,24,16,04,24.20
2006,06,24,16,05,24.00
2006,06,24,16,06,23.80
2006,06,24,16,07,23.70
2006,06,24,16,08,23.80
2006,06,24,16,09,23.70
2006,06,24,16,10,23.70
2006,06,24,16,11,23.70
2006,06,24,16,12,23.80
2006,06,24,16,13,23.80
2006,06,24,16,14,23.80
2006,06,24,16,15,23.80
2006,06,24,16,16,23.90
2006,06,24,16,17,24.00
2006,06,24,16,18,24.10
2006,06,24,16,19,24.10
2006,06,24,16,20,24.10
2006,06,24,16,21,24.10
2006,06,24,16,22,24.00
2006,06,24,16,23,24.10
2006,06,24,16,24,24.10
2006,06,24,16,25,24.10
2006,06,24,16,26,24.00
2006,06,24,16,27,23.90
2006,06,24,16,28,23.80
2006,06,24,16,29,23.90
2006,06,24,16,30,23.90
2006,06,24,16,31,23.90
2006,06,24,16,32,23.80
2006,06,24,16,33,24.00
2006,06,24,16,34,24.30
2006,06,24,16,35,24.50
2006,06,24,16,36,24.50
2006,06,24,16,37,24.50
2006,06,24,16,38,24.20
2006,06,24,16,39,24.10
2006,06,24,16,40,24.10
2006,06,24,16,41,24.10
2006,06,24,16,42,24.10
2006,06,24,16,43,24.10
2006,06,24,16,44,24.10
2006,06,24,16,45,24.10
2006,06,24,16,46,24.10
2006,06,24,16,47,24.00
2006,06,24,16,48,23.90
2006,06,24,16,49,23.90
2006,06,24,16,50,24.00
2006,06,24,16,51,24.10
2006,06,24,16,52,24.20
2006,06,24,16,53,24.30
2006,06,24,16,54,24.40
2006,06,24,16,55,24.40
2006,06,24,16,56,24.40
2006,06,24,16,57,24.40
2006,06,24,16,58,24.50
2006,06,24,16,59,24.50
2006,06,24,17,00,24.60
2006,06,24,17,01,24.50
2006,06,24,17,02,24.50
2006,06,24,17,03,24.60
2006,06,24,17,04,24.60
2006,06,24,17,05,24.50
2006,06,24,17,06,24.40
2006,06,24,17,07,24.30
2006,06,24,17,08,24.30
2006,06,24,17,09,24.30
2006,06,24,17,10,24.20
2006,06,24,17,11,24.10
2006,06,24,17,12,24.00
2006,06,24,17,13,23.90
2006,06,24,17,14,23.90
2006,06,24,17,15,23.80
2006,06,24,17,16,23.80
2006,06,24,17,17,23.70
2006,06,24,17,18,23.70
2006,06,24,17,19,23.80
2006,06,24,17,20,23.90
2006,06,24,17,21,23.90
2006,06,24,17,22,23.90
2006,06,24,17,23,23.90
2006,06,24,17,24,23.90
2006,06,24,17,25,23.90
2006,06,24,17,26,23.90
2006,06,24,17,27,23.90
2006,06,24,17,28,23.80
2006,06,24,17,29,23.70
2006,06,24,17,30,23.60
2006,06,24,17,31,23.50
2006,06,24,17,32,23.40
2006,06,24,17,33,23.40
2006,06,24,17,34,23.50